Zurück zum Katalog

COSMOS 1137

AktivMilitärLEO
NORAD 11545·PAYLOAD·🇷🇺 Russia

Gestartet Sep 25, 1979 von Plesetsk Cosmodrome

Loading…

Nächste Überflüge (nächste 24 Stunden)

TLE

AktuellSource: Space-Track

Epoche: Sep 14, 2026, 09:43 UTC

1 11545U 79084H   26257.40516476  .00000005  00000-0  14947-3 0  9992
2 11545  74.0242 135.8462 0026766 338.9703 133.4044 12.43199455131610

Verfolge COSMOS 1137 in Echtzeit mit AllMySat

Download on the App Store